Time,TemperatureF,DewpointF,PressureIn,WindDirection,WindDirectionDegrees,WindSpeedMPH,WindSpeedGustMPH,Humidity,HourlyPrecipIn,Conditions,Clouds,dailyrainin,SoftwareType,DateUTC
2013-09-25 00:03:00,61.8,55.2,29.90,NNE,29,3.0,3.0,79,0.00,,,0.00,Wunderground v.1.15,2013-09-25 05:03:00,
2013-09-25 00:09:00,61.9,55.3,29.90,NNE,29,3.0,4.0,79,0.00,,,0.00,Wunderground v.1.15,2013-09-25 05:09:00,
2013-09-25 00:14:00,61.9,55.3,29.89,NNE,29,3.0,4.0,79,0.00,,,0.00,Wunderground v.1.15,2013-09-25 05:14:00,
2013-09-25 00:19:00,61.9,55.3,29.90,NNE,29,3.0,4.0,79,0.00,,,0.00,Wunderground v.1.15,2013-09-25 05:19:00,
2013-09-25 00:24:00,61.8,55.2,29.90,NNE,29,3.0,4.0,79,0.00,,,0.00,Wunderground v.1.15,2013-09-25 05:24:00,
2013-09-25 00:29:00,61.7,55.1,29.90,NNE,12,4.0,4.0,79,0.00,,,0.00,Wunderground v.1.15,2013-09-25 05:29:00,
2013-09-25 00:35:00,61.8,55.2,29.90,North,355,4.0,4.0,79,0.00,,,0.00,Wunderground v.1.15,2013-09-25 05:35:00,
2013-09-25 00:41:00,61.8,55.2,29.90,North,355,4.0,5.0,79,0.00,,,0.00,Wunderground v.1.15,2013-09-25 05:41:00,
2013-09-25 00:47:00,61.8,55.2,29.90,North,355,4.0,5.0,79,0.00,,,0.00,Wunderground v.1.15,2013-09-25 05:47:00,
2013-09-25 00:53:00,61.7,55.1,29.90,North,360,4.0,5.0,79,0.00,,,0.00,Wunderground v.1.15,2013-09-25 05:53:00,
2013-09-25 00:59:00,61.7,55.1,29.89,NNE,16,4.0,6.0,79,0.00,,,0.00,Wunderground v.1.15,2013-09-25 05:59:00,
2013-09-25 01:05:00,61.5,54.9,29.90,NNE,17,4.0,6.0,79,0.00,,,0.00,Wunderground v.1.15,2013-09-25 06:05:00,
2013-09-25 01:11:00,61.3,55.1,29.90,NNE,17,4.0,4.0,80,0.00,,,0.00,Wunderground v.1.15,2013-09-25 06:11:00,
2013-09-25 01:16:00,61.1,54.9,29.89,NNE,17,4.0,4.0,80,0.00,,,0.00,Wunderground v.1.15,2013-09-25 06:16:00,
2013-09-25 01:21:00,61.0,54.8,29.89,NNE,17,4.0,5.0,80,0.00,,,0.00,Wunderground v.1.15,2013-09-25 06:21:00,
2013-09-25 01:26:00,60.7,54.5,29.89,NNE,17,4.0,5.0,80,0.00,,,0.00,Wunderground v.1.15,2013-09-25 06:26:00,
2013-09-25 01:32:00,60.4,54.5,29.89,NNE,17,4.0,5.0,81,0.00,,,0.00,Wunderground v.1.15,2013-09-25 06:32:00,
2013-09-25 01:37:00,60.3,54.8,29.89,NNE,17,4.0,5.0,82,0.00,,,0.00,Wunderground v.1.15,2013-09-25 06:37:00,
2013-09-25 01:42:00,60.4,54.9,29.89,NNE,17,4.0,5.0,82,0.00,,,0.00,Wunderground v.1.15,2013-09-25 06:42:00,
2013-09-25 01:47:00,60.5,54.6,29.89,NNE,15,4.0,5.0,81,0.00,,,0.00,Wunderground v.1.15,2013-09-25 06:47:00,
2013-09-25 01:53:00,60.7,54.8,29.89,NNE,15,3.0,5.0,81,0.00,,,0.00,Wunderground v.1.15,2013-09-25 06:53:00,
2013-09-25 01:59:00,60.6,54.7,29.89,North,5,3.0,5.0,81,0.00,,,0.00,Wunderground v.1.15,2013-09-25 06:59:00,
2013-09-25 02:05:00,60.5,54.6,29.89,North,9,4.0,5.0,81,0.00,,,0.00,Wunderground v.1.15,2013-09-25 07:05:00,
2013-09-25 02:10:00,60.5,54.6,29.89,NNE,17,4.0,5.0,81,0.00,,,0.00,Wunderground v.1.15,2013-09-25 07:10:00,
2013-09-25 02:15:00,60.4,54.5,29.89,NNE,19,5.0,6.0,81,0.00,,,0.00,Wunderground v.1.15,2013-09-25 07:15:00,
2013-09-25 02:21:00,60.2,54.7,29.89,NNE,22,6.0,7.0,82,0.00,,,0.00,Wunderground v.1.15,2013-09-25 07:21:00,
2013-09-25 02:27:00,60.3,54.8,29.89,NNE,27,6.0,8.0,82,0.00,,,0.00,Wunderground v.1.15,2013-09-25 07:27:00,
2013-09-25 02:33:00,60.3,54.8,29.89,NNE,28,6.0,7.0,82,0.00,,,0.00,Wunderground v.1.15,2013-09-25 07:33:00,
2013-09-25 02:38:00,60.1,54.6,29.89,NNE,30,6.0,7.0,82,0.00,,,0.00,Wunderground v.1.15,2013-09-25 07:38:00,
2013-09-25 02:43:00,59.8,54.3,29.89,NNE,29,5.0,6.0,82,0.00,,,0.00,Wunderground v.1.15,2013-09-25 07:43:00,
2013-09-25 02:48:00,59.5,54.3,29.89,NNE,29,4.0,6.0,83,0.00,,,0.00,Wunderground v.1.15,2013-09-25 07:48:00,
2013-09-25 02:53:00,59.2,54.4,29.89,NNE,27,4.0,5.0,84,0.00,,,0.00,Wunderground v.1.15,2013-09-25 07:53:00,
2013-09-25 02:59:00,59.0,54.2,29.89,North,360,4.0,5.0,84,0.00,,,0.00,Wunderground v.1.15,2013-09-25 07:59:00,
2013-09-25 03:04:00,58.9,54.1,29.89,North,5,3.0,5.0,84,0.00,,,0.00,Wunderground v.1.15,2013-09-25 08:04:00,
2013-09-25 03:10:00,58.7,54.2,29.89,North,5,3.0,5.0,85,0.00,,,0.00,Wunderground v.1.15,2013-09-25 08:10:00,
2013-09-25 03:15:00,58.6,54.1,29.89,North,5,3.0,5.0,85,0.00,,,0.00,Wunderground v.1.15,2013-09-25 08:15:00,
2013-09-25 03:20:00,58.5,54.0,29.88,North,355,3.0,3.0,85,0.00,,,0.00,Wunderground v.1.15,2013-09-25 08:20:00,
2013-09-25 03:25:00,58.2,54.0,29.88,North,355,3.0,5.0,86,0.00,,,0.00,Wunderground v.1.15,2013-09-25 08:25:00,
2013-09-25 03:30:00,58.1,53.9,29.88,North,355,4.0,4.0,86,0.00,,,0.00,Wunderground v.1.15,2013-09-25 08:30:00,
2013-09-25 03:36:00,58.4,54.2,29.88,NNE,17,4.0,6.0,86,0.00,,,0.00,Wunderground v.1.15,2013-09-25 08:36:00,
2013-09-25 03:42:00,58.2,54.0,29.88,NNE,28,5.0,5.0,86,0.00,,,0.00,Wunderground v.1.15,2013-09-25 08:42:00,
2013-09-25 03:48:00,58.3,54.1,29.88,NNE,28,4.0,5.0,86,0.00,,,0.00,Wunderground v.1.15,2013-09-25 08:48:00,
2013-09-25 03:53:00,58.1,53.9,29.88,NNE,26,4.0,4.0,86,0.00,,,0.00,Wunderground v.1.15,2013-09-25 08:53:00,
2013-09-25 03:58:00,57.9,53.7,29.88,NNE,23,4.0,6.0,86,0.00,,,0.00,Wunderground v.1.15,2013-09-25 08:58:00,
2013-09-25 04:03:00,57.6,53.8,29.87,NE,37,5.0,8.0,87,0.00,,,0.00,Wunderground v.1.15,2013-09-25 09:03:00,
2013-09-25 04:09:00,57.5,53.7,29.87,NE,40,7.0,9.0,87,0.00,,,0.00,Wunderground v.1.15,2013-09-25 09:09:00,
2013-09-25 04:14:00,57.2,53.7,29.87,NE,39,7.0,9.0,88,0.00,,,0.00,Wunderground v.1.15,2013-09-25 09:14:00,
2013-09-25 04:19:00,57.3,53.8,29.87,NNE,29,5.0,9.0,88,0.00,,,0.00,Wunderground v.1.15,2013-09-25 09:19:00,
2013-09-25 04:24:00,57.2,53.4,29.88,NNE,29,2.0,4.0,87,0.00,,,0.00,Wunderground v.1.15,2013-09-25 09:24:00,
2013-09-25 04:29:00,57.0,53.5,29.88,NNE,29,1.0,4.0,88,0.00,,,0.00,Wunderground v.1.15,2013-09-25 09:29:00,
2013-09-25 04:35:00,56.8,53.3,29.88,NNE,29,0.0,1.0,88,0.00,,,0.00,Wunderground v.1.15,2013-09-25 09:35:00,
2013-09-25 04:40:00,56.5,53.0,29.88,NNE,29,0.0,0.0,88,0.00,,,0.00,Wunderground v.1.15,2013-09-25 09:40:00,
2013-09-25 04:45:00,56.3,52.8,29.88,NNE,29,0.0,0.0,88,0.00,,,0.00,Wunderground v.1.15,2013-09-25 09:45:00,
2013-09-25 04:50:00,56.0,52.8,29.88,NNE,29,0.0,0.0,89,0.00,,,0.00,Wunderground v.1.15,2013-09-25 09:50:00,
2013-09-25 04:55:00,55.8,52.9,29.88,WNW,284,0.0,4.0,90,0.00,,,0.00,Wunderground v.1.15,2013-09-25 09:55:00,
2013-09-25 05:01:00,55.6,52.7,29.88,WSW,254,2.0,5.0,90,0.00,,,0.00,Wunderground v.1.15,2013-09-25 10:01:00,
2013-09-25 05:07:00,55.6,52.7,29.88,WSW,248,3.0,5.0,90,0.00,,,0.00,Wunderground v.1.15,2013-09-25 10:07:00,
2013-09-25 05:13:00,55.3,52.4,29.88,West,265,2.0,6.0,90,0.00,,,0.00,Wunderground v.1.15,2013-09-25 10:13:00,
2013-09-25 05:19:00,55.1,52.2,29.89,West,263,3.0,6.0,90,0.00,,,0.00,Wunderground v.1.15,2013-09-25 10:19:00,
2013-09-25 05:25:00,55.0,52.1,29.89,West,263,1.0,2.0,90,0.00,,,0.00,Wunderground v.1.15,2013-09-25 10:25:00,
2013-09-25 05:31:00,54.8,52.2,29.89,West,263,1.0,3.0,91,0.00,,,0.00,Wunderground v.1.15,2013-09-25 10:31:00,
2013-09-25 05:37:00,54.5,51.9,29.89,WNW,285,2.0,3.0,91,0.00,,,0.00,Wunderground v.1.15,2013-09-25 10:37:00,
2013-09-25 05:42:00,54.4,51.8,29.89,WNW,285,3.0,4.0,91,0.00,,,0.00,Wunderground v.1.15,2013-09-25 10:42:00,
2013-09-25 05:47:00,54.3,51.7,29.89,WNW,287,3.0,4.0,91,0.00,,,0.00,Wunderground v.1.15,2013-09-25 10:47:00,
2013-09-25 05:52:00,54.2,51.9,29.89,WNW,289,3.0,5.0,92,0.00,,,0.00,Wunderground v.1.15,2013-09-25 10:52:00,
2013-09-25 05:57:00,54.1,51.8,29.90,WNW,290,3.0,5.0,92,0.00,,,0.00,Wunderground v.1.15,2013-09-25 10:57:00,
2013-09-25 06:02:00,54.0,51.7,29.90,West,278,3.0,4.0,92,0.00,,,0.00,Wunderground v.1.15,2013-09-25 11:02:00,
2013-09-25 06:08:00,53.9,51.6,29.90,WNW,298,3.0,4.0,92,0.00,,,0.00,Wunderground v.1.15,2013-09-25 11:08:00,
2013-09-25 06:13:00,53.8,51.5,29.90,WNW,296,3.0,5.0,92,0.00,,,0.00,Wunderground v.1.15,2013-09-25 11:13:00,
2013-09-25 06:18:00,53.7,51.4,29.90,WNW,300,4.0,5.0,92,0.00,,,0.00,Wunderground v.1.15,2013-09-25 11:18:00,
2013-09-25 06:23:00,53.7,51.4,29.90,WNW,299,4.0,5.0,92,0.00,,,0.00,Wunderground v.1.15,2013-09-25 11:23:00,
2013-09-25 06:29:00,53.9,51.9,29.90,WNW,302,3.0,5.0,93,0.00,,,0.00,Wunderground v.1.15,2013-09-25 11:29:00,
2013-09-25 06:34:00,54.1,52.1,29.89,NW,304,3.0,4.0,93,0.00,,,0.00,Wunderground v.1.15,2013-09-25 11:34:00,
2013-09-25 06:39:00,54.3,52.3,29.89,NW,306,4.0,5.0,93,0.00,,,0.00,Wunderground v.1.15,2013-09-25 11:39:00,
2013-09-25 06:45:00,54.6,52.6,29.89,NNW,339,4.0,5.0,93,0.00,,,0.00,Wunderground v.1.15,2013-09-25 11:45:00,
2013-09-25 06:51:00,54.5,52.2,29.88,NNE,26,4.0,5.0,92,0.00,,,0.00,Wunderground v.1.15,2013-09-25 11:51:00,
2013-09-25 06:56:00,54.2,51.9,29.89,NNE,26,3.0,5.0,92,0.00,,,0.00,Wunderground v.1.15,2013-09-25 11:56:00,
2013-09-25 07:01:00,54.1,51.8,29.90,West,281,2.0,3.0,92,0.00,,,0.00,Wunderground v.1.15,2013-09-25 12:01:00,
2013-09-25 07:07:00,54.2,52.2,29.90,WNW,294,3.0,4.0,93,0.00,,,0.00,Wunderground v.1.15,2013-09-25 12:07:00,
2013-09-25 07:12:00,54.2,51.9,29.90,WNW,299,3.0,5.0,92,0.00,,,0.00,Wunderground v.1.15,2013-09-25 12:12:00,
2013-09-25 07:17:00,54.1,51.8,29.90,WNW,286,4.0,5.0,92,0.00,,,0.00,Wunderground v.1.15,2013-09-25 12:17:00,
2013-09-25 07:22:00,54.0,51.7,29.91,West,277,4.0,4.0,92,0.00,,,0.00,Wunderground v.1.15,2013-09-25 12:22:00,
2013-09-25 07:27:00,54.0,51.7,29.91,West,281,3.0,4.0,92,0.00,,,0.00,Wunderground v.1.15,2013-09-25 12:27:00,
2013-09-25 07:32:00,53.9,51.6,29.92,West,280,2.0,3.0,92,0.00,,,0.00,Wunderground v.1.15,2013-09-25 12:32:00,
2013-09-25 07:37:00,53.8,51.5,29.92,West,280,2.0,4.0,92,0.00,,,0.00,Wunderground v.1.15,2013-09-25 12:37:00,
2013-09-25 07:42:00,53.9,51.9,29.92,West,280,3.0,4.0,93,0.00,,,0.00,Wunderground v.1.15,2013-09-25 12:42:00,
2013-09-25 07:48:00,53.9,51.9,29.92,West,276,3.0,5.0,93,0.00,,,0.00,Wunderground v.1.15,2013-09-25 12:48:00,
2013-09-25 07:54:00,54.0,52.0,29.92,West,280,2.0,3.0,93,0.00,,,0.00,Wunderground v.1.15,2013-09-25 12:54:00,
2013-09-25 07:59:00,54.2,52.2,29.92,WNW,291,2.0,3.0,93,0.00,,,0.00,Wunderground v.1.15,2013-09-25 12:59:00,
2013-09-25 08:04:00,54.6,52.9,29.92,NW,306,2.0,4.0,94,0.00,,,0.00,Wunderground v.1.15,2013-09-25 13:04:00,
2013-09-25 08:10:00,55.2,53.5,29.92,NW,306,3.0,3.0,94,0.00,,,0.00,Wunderground v.1.15,2013-09-25 13:10:00,
2013-09-25 08:15:00,55.6,53.6,29.92,NW,306,3.0,4.0,93,0.00,,,0.00,Wunderground v.1.15,2013-09-25 13:15:00,
2013-09-25 08:20:00,56.1,54.1,29.92,NW,306,2.0,2.0,93,0.00,,,0.00,Wunderground v.1.15,2013-09-25 13:20:00,
2013-09-25 08:25:00,56.8,54.8,29.92,NW,306,0.0,2.0,93,0.00,,,0.00,Wunderground v.1.15,2013-09-25 13:25:00,
2013-09-25 08:31:00,57.6,55.3,29.92,NW,306,0.0,0.0,92,0.00,,,0.00,Wunderground v.1.15,2013-09-25 13:31:00,
2013-09-25 08:37:00,58.5,56.2,29.92,NW,306,0.0,0.0,92,0.00,,,0.00,Wunderground v.1.15,2013-09-25 13:37:00,
2013-09-25 08:42:00,59.1,56.5,29.91,North,10,0.0,0.0,91,0.00,,,0.00,Wunderground v.1.15,2013-09-25 13:42:00,
2013-09-25 08:47:00,59.7,56.8,29.91,North,10,0.0,0.0,90,0.00,,,0.00,Wunderground v.1.15,2013-09-25 13:47:00,
2013-09-25 08:53:00,60.3,57.0,29.91,North,10,0.0,0.0,89,0.00,,,0.00,Wunderground v.1.15,2013-09-25 13:53:00,
2013-09-25 08:58:00,60.8,57.5,29.91,NNE,13,0.0,0.0,89,0.00,,,0.00,Wunderground v.1.15,2013-09-25 13:58:00,
2013-09-25 09:03:00,61.3,57.7,29.91,NNE,13,0.0,0.0,88,0.00,,,0.00,Wunderground v.1.15,2013-09-25 14:03:00,
2013-09-25 09:08:00,61.7,57.5,29.91,NNE,13,0.0,0.0,86,0.00,,,0.00,Wunderground v.1.15,2013-09-25 14:08:00,
2013-09-25 09:13:00,62.2,57.6,29.91,NNE,32,0.0,0.0,85,0.00,,,0.00,Wunderground v.1.15,2013-09-25 14:13:00,
2013-09-25 09:18:00,62.7,57.5,29.91,NNE,32,0.0,0.0,83,0.00,,,0.00,Wunderground v.1.15,2013-09-25 14:18:00,
2013-09-25 09:24:00,63.5,58.2,29.91,NE,34,0.0,0.0,83,0.00,,,0.00,Wunderground v.1.15,2013-09-25 14:24:00,
2013-09-25 09:30:00,64.2,58.2,29.91,NE,34,0.0,0.0,81,0.00,,,0.00,Wunderground v.1.15,2013-09-25 14:30:00,
2013-09-25 09:35:00,64.9,58.6,29.92,ESE,117,0.0,0.0,80,0.00,,,0.00,Wunderground v.1.15,2013-09-25 14:35:00,
2013-09-25 09:41:00,65.4,59.4,29.92,ESE,117,1.0,3.0,81,0.00,,,0.00,Wunderground v.1.15,2013-09-25 14:41:00,
2013-09-25 09:46:00,65.5,58.8,29.92,ESE,117,1.0,3.0,79,0.00,,,0.00,Wunderground v.1.15,2013-09-25 14:46:00,
2013-09-25 09:51:00,66.1,59.0,29.92,ESE,117,0.0,0.0,78,0.00,,,0.00,Wunderground v.1.15,2013-09-25 14:51:00,
2013-09-25 09:57:00,66.8,58.6,29.92,SE,136,1.0,5.0,75,0.00,,,0.00,Wunderground v.1.15,2013-09-25 14:57:00,
2013-09-25 10:02:00,67.0,58.8,29.92,SE,136,3.0,6.0,75,0.00,,,0.00,Wunderground v.1.15,2013-09-25 15:02:00,
2013-09-25 10:07:00,67.3,59.1,29.92,SE,132,4.0,6.0,75,0.00,,,0.00,Wunderground v.1.15,2013-09-25 15:07:00,
2013-09-25 10:12:00,67.7,59.1,29.92,SSE,162,3.0,4.0,74,0.00,,,0.00,Wunderground v.1.15,2013-09-25 15:12:00,
2013-09-25 10:18:00,67.6,58.6,29.92,SSE,161,3.0,6.0,73,0.00,,,0.00,Wunderground v.1.15,2013-09-25 15:18:00,
2013-09-25 10:24:00,68.0,59.4,29.92,SSE,168,4.0,5.0,74,0.00,,,0.00,Wunderground v.1.15,2013-09-25 15:24:00,
2013-09-25 10:29:00,67.8,59.2,29.92,South,186,4.0,6.0,74,0.00,,,0.00,Wunderground v.1.15,2013-09-25 15:29:00,
2013-09-25 10:35:00,68.3,59.3,29.92,SE,137,4.0,6.0,73,0.00,,,0.00,Wunderground v.1.15,2013-09-25 15:35:00,
2013-09-25 10:40:00,68.6,58.8,29.92,South,178,3.0,5.0,71,0.00,,,0.00,Wunderground v.1.15,2013-09-25 15:40:00,
2013-09-25 10:45:00,68.9,59.9,29.92,South,173,3.0,5.0,73,0.00,,,0.00,Wunderground v.1.15,2013-09-25 15:45:00,
2013-09-25 10:51:00,69.1,58.1,29.92,South,177,3.0,5.0,68,0.00,,,0.00,Wunderground v.1.15,2013-09-25 15:51:00,
2013-09-25 10:56:00,69.2,58.6,29.92,SSE,163,3.0,5.0,69,0.00,,,0.00,Wunderground v.1.15,2013-09-25 15:56:00,
2013-09-25 11:01:00,69.4,59.2,29.92,SSE,159,3.0,7.0,70,0.00,,,0.00,Wunderground v.1.15,2013-09-25 16:01:00,
2013-09-25 11:07:00,69.7,58.7,29.91,SSW,199,3.0,7.0,68,0.00,,,0.00,Wunderground v.1.15,2013-09-25 16:07:00,
2013-09-25 11:13:00,69.9,58.0,29.91,SSE,162,4.0,7.0,66,0.00,,,0.00,Wunderground v.1.15,2013-09-25 16:13:00,
2013-09-25 11:18:00,70.2,58.7,29.91,SSE,157,4.0,7.0,67,0.00,,,0.00,Wunderground v.1.15,2013-09-25 16:18:00,
2013-09-25 11:23:00,70.4,58.9,29.91,SE,124,4.0,7.0,67,0.00,,,0.00,Wunderground v.1.15,2013-09-25 16:23:00,
2013-09-25 11:28:00,70.7,59.6,29.90,SE,144,5.0,8.0,68,0.00,,,0.00,Wunderground v.1.15,2013-09-25 16:28:00,
2013-09-25 11:33:00,71.0,59.5,29.90,SSE,160,5.0,6.0,67,0.00,,,0.00,Wunderground v.1.15,2013-09-25 16:33:00,
2013-09-25 11:39:00,71.0,58.6,29.90,South,173,4.0,9.0,65,0.00,,,0.00,Wunderground v.1.15,2013-09-25 16:39:00,
2013-09-25 11:45:00,71.3,59.4,29.90,South,177,4.0,8.0,66,0.00,,,0.00,Wunderground v.1.15,2013-09-25 16:45:00,
2013-09-25 11:51:00,71.6,58.8,29.90,SSE,154,5.0,8.0,64,0.00,,,0.00,Wunderground v.1.15,2013-09-25 16:51:00,
2013-09-25 11:57:00,71.7,59.3,29.90,SSW,200,5.0,8.0,65,0.00,,,0.00,Wunderground v.1.15,2013-09-25 16:57:00,
2013-09-25 12:03:00,72.1,58.8,29.89,SSE,167,4.0,7.0,63,0.00,,,0.00,Wunderground v.1.15,2013-09-25 17:03:00,
2013-09-25 12:08:00,71.9,60.8,29.89,SE,132,4.0,9.0,68,0.00,,,0.00,Wunderground v.1.15,2013-09-25 17:08:00,
2013-09-25 12:14:00,71.6,58.8,29.89,SSE,161,5.0,9.0,64,0.00,,,0.00,Wunderground v.1.15,2013-09-25 17:14:00,
2013-09-25 12:19:00,71.8,59.0,29.89,South,169,6.0,9.0,64,0.00,,,0.00,Wunderground v.1.15,2013-09-25 17:19:00,
2013-09-25 12:25:00,72.5,58.7,29.88,SSE,152,5.0,8.0,62,0.00,,,0.00,Wunderground v.1.15,2013-09-25 17:25:00,
2013-09-25 12:31:00,73.1,58.8,29.88,SSE,152,6.0,8.0,61,0.00,,,0.00,Wunderground v.1.15,2013-09-25 17:31:00,
2013-09-25 12:36:00,73.7,59.4,29.88,ESE,113,6.0,10.0,61,0.00,,,0.00,Wunderground v.1.15,2013-09-25 17:36:00,
2013-09-25 12:42:00,74.2,58.9,29.87,SSE,165,7.0,10.0,59,0.00,,,0.00,Wunderground v.1.15,2013-09-25 17:42:00,
2013-09-25 12:47:00,74.3,58.6,29.87,SE,133,7.0,10.0,58,0.00,,,0.00,Wunderground v.1.15,2013-09-25 17:47:00,
2013-09-25 12:52:00,74.8,60.0,29.87,SE,140,6.0,7.0,60,0.00,,,0.00,Wunderground v.1.15,2013-09-25 17:52:00,
2013-09-25 12:58:00,75.3,60.0,29.86,South,174,6.0,9.0,59,0.00,,,0.00,Wunderground v.1.15,2013-09-25 17:58:00,
2013-09-25 13:03:00,75.5,58.7,29.86,SE,134,6.0,10.0,56,0.00,,,0.00,Wunderground v.1.15,2013-09-25 18:03:00,
2013-09-25 13:08:00,75.8,60.0,29.86,SE,129,7.0,10.0,58,0.00,,,0.00,Wunderground v.1.15,2013-09-25 18:08:00,
2013-09-25 13:13:00,76.4,60.0,29.85,SE,140,7.0,13.0,57,0.00,,,0.00,Wunderground v.1.15,2013-09-25 18:13:00,
2013-09-25 13:19:00,76.7,60.3,29.85,SSE,154,6.0,13.0,57,0.00,,,0.00,Wunderground v.1.15,2013-09-25 18:19:00,
2013-09-25 13:25:00,77.0,59.6,29.85,SE,130,7.0,13.0,55,0.00,,,0.00,Wunderground v.1.15,2013-09-25 18:25:00,
2013-09-25 13:31:00,77.2,59.8,29.85,SE,128,7.0,9.0,55,0.00,,,0.00,Wunderground v.1.15,2013-09-25 18:31:00,
2013-09-25 13:37:00,77.4,57.3,29.84,South,169,8.0,15.0,50,0.00,,,0.00,Wunderground v.1.15,2013-09-25 18:37:00,
2013-09-25 13:42:00,77.4,57.9,29.84,SE,132,8.0,9.0,51,0.00,,,0.00,Wunderground v.1.15,2013-09-25 18:42:00,
2013-09-25 13:48:00,77.9,58.9,29.83,SE,146,7.0,12.0,52,0.00,,,0.00,Wunderground v.1.15,2013-09-25 18:48:00,
2013-09-25 13:53:00,78.3,57.6,29.83,SE,129,9.0,14.0,49,0.00,,,0.00,Wunderground v.1.15,2013-09-25 18:53:00,
2013-09-25 13:59:00,78.4,58.2,29.83,SE,130,10.0,14.0,50,0.00,,,0.00,Wunderground v.1.15,2013-09-25 18:59:00,
2013-09-25 14:04:00,78.6,57.8,29.82,South,177,8.0,12.0,49,0.00,,,0.00,Wunderground v.1.15,2013-09-25 19:04:00,
2013-09-25 14:09:00,78.9,59.2,29.82,SSE,159,8.0,14.0,51,0.00,,,0.00,Wunderground v.1.15,2013-09-25 19:09:00,
2013-09-25 14:15:00,79.1,58.3,29.82,ESE,105,8.0,14.0,49,0.00,,,0.00,Wunderground v.1.15,2013-09-25 19:15:00,
2013-09-25 14:21:00,79.4,59.1,29.81,SE,143,9.0,13.0,50,0.00,,,0.00,Wunderground v.1.15,2013-09-25 19:21:00,
2013-09-25 14:27:00,79.7,57.1,29.81,SSE,152,9.0,14.0,46,0.00,,,0.00,Wunderground v.1.15,2013-09-25 19:27:00,
2013-09-25 14:32:00,79.8,58.4,29.80,SE,143,7.0,9.0,48,0.00,,,0.00,Wunderground v.1.15,2013-09-25 19:32:00,
2013-09-25 14:37:00,79.9,58.5,29.80,SSE,148,8.0,13.0,48,0.00,,,0.00,Wunderground v.1.15,2013-09-25 19:37:00,
2013-09-25 14:42:00,80.0,59.7,29.80,SSE,153,9.0,11.0,50,0.00,,,0.00,Wunderground v.1.15,2013-09-25 19:42:00,
2013-09-25 14:48:00,80.3,58.2,29.79,SSE,153,9.0,13.0,47,0.00,,,0.00,Wunderground v.1.15,2013-09-25 19:48:00,
2013-09-25 14:54:00,80.7,58.0,29.79,SE,134,9.0,13.0,46,0.00,,,0.00,Wunderground v.1.15,2013-09-25 19:54:00,
2013-09-25 14:59:00,80.9,58.2,29.79,SE,130,9.0,14.0,46,0.00,,,0.00,Wunderground v.1.15,2013-09-25 19:59:00,
2013-09-25 15:05:00,80.9,58.2,29.78,SSE,148,10.0,16.0,46,0.00,,,0.00,Wunderground v.1.15,2013-09-25 20:05:00,
2013-09-25 15:10:00,81.2,56.6,29.79,SE,140,11.0,11.0,43,0.00,,,0.00,Wunderground v.1.15,2013-09-25 20:10:00,
2013-09-25 15:15:00,81.3,57.9,29.78,SE,140,10.0,14.0,45,0.00,,,0.00,Wunderground v.1.15,2013-09-25 20:15:00,
2013-09-25 15:21:00,81.8,57.1,29.78,SSE,155,9.0,14.0,43,0.00,,,0.00,Wunderground v.1.15,2013-09-25 20:21:00,
2013-09-25 15:26:00,82.1,58.0,29.78,SSE,150,10.0,16.0,44,0.00,,,0.00,Wunderground v.1.15,2013-09-25 20:26:00,
2013-09-25 15:32:00,82.4,53.5,29.78,South,188,11.0,15.0,37,0.00,,,0.00,Wunderground v.1.15,2013-09-25 20:32:00,
2013-09-25 15:38:00,82.2,54.1,29.78,South,175,12.0,16.0,38,0.00,,,0.00,Wunderground v.1.15,2013-09-25 20:38:00,
2013-09-25 15:43:00,82.4,54.2,29.78,SSE,159,12.0,16.0,38,0.00,,,0.00,Wunderground v.1.15,2013-09-25 20:43:00,
2013-09-25 15:48:00,82.7,55.2,29.77,SSE,150,12.0,18.0,39,0.00,,,0.00,Wunderground v.1.15,2013-09-25 20:48:00,
2013-09-25 15:54:00,82.9,56.1,29.77,SSE,161,11.0,15.0,40,0.00,,,0.00,Wunderground v.1.15,2013-09-25 20:54:00,
2013-09-25 15:59:00,82.8,54.6,29.77,South,169,11.0,17.0,38,0.00,,,0.00,Wunderground v.1.15,2013-09-25 20:59:00,
2013-09-25 16:04:00,82.7,54.5,29.77,SSE,164,13.0,20.0,38,0.00,,,0.00,Wunderground v.1.15,2013-09-25 21:04:00,
2013-09-25 16:10:00,83.1,56.3,29.77,South,169,12.0,16.0,40,0.00,,,0.00,Wunderground v.1.15,2013-09-25 21:10:00,
2013-09-25 16:16:00,83.0,53.3,29.77,SE,134,13.0,19.0,36,0.00,,,0.00,Wunderground v.1.15,2013-09-25 21:16:00,
2013-09-25 16:21:00,83.3,54.3,29.77,SE,145,12.0,18.0,37,0.00,,,0.00,Wunderground v.1.15,2013-09-25 21:21:00,
2013-09-25 16:26:00,83.5,53.7,29.76,SSE,167,12.0,18.0,36,0.00,,,0.00,Wunderground v.1.15,2013-09-25 21:26:00,
2013-09-25 16:31:00,83.6,53.8,29.76,SSE,157,12.0,15.0,36,0.00,,,0.00,Wunderground v.1.15,2013-09-25 21:31:00,
2013-09-25 16:37:00,83.6,54.6,29.76,SE,144,13.0,17.0,37,0.00,,,0.00,Wunderground v.1.15,2013-09-25 21:37:00,
2013-09-25 16:42:00,83.5,53.7,29.76,South,172,13.0,16.0,36,0.00,,,0.00,Wunderground v.1.15,2013-09-25 21:42:00,
2013-09-25 16:48:00,83.7,53.9,29.76,SSE,159,12.0,16.0,36,0.00,,,0.00,Wunderground v.1.15,2013-09-25 21:48:00,
2013-09-25 16:54:00,83.7,54.7,29.75,South,178,13.0,17.0,37,0.00,,,0.00,Wunderground v.1.15,2013-09-25 21:54:00,
2013-09-25 17:00:00,83.1,54.1,29.75,South,180,12.0,14.0,37,0.00,,,0.00,Wunderground v.1.15,2013-09-25 22:00:00,
2013-09-25 17:06:00,83.5,53.7,29.75,SSE,167,12.0,17.0,36,0.00,,,0.00,Wunderground v.1.15,2013-09-25 22:06:00,
2013-09-25 17:12:00,83.5,54.5,29.75,South,179,12.0,17.0,37,0.00,,,0.00,Wunderground v.1.15,2013-09-25 22:12:00,
2013-09-25 17:18:00,83.2,54.2,29.75,SSE,150,13.0,18.0,37,0.00,,,0.00,Wunderground v.1.15,2013-09-25 22:18:00,
2013-09-25 17:23:00,83.1,54.1,29.75,SSE,154,14.0,17.0,37,0.00,,,0.00,Wunderground v.1.15,2013-09-25 22:23:00,
2013-09-25 17:29:00,82.9,54.7,29.75,South,172,13.0,17.0,38,0.00,,,0.00,Wunderground v.1.15,2013-09-25 22:29:00,
2013-09-25 17:34:00,82.8,54.6,29.75,SSE,167,12.0,16.0,38,0.00,,,0.00,Wunderground v.1.15,2013-09-25 22:34:00,
2013-09-25 17:39:00,82.9,54.7,29.75,SSE,161,12.0,20.0,38,0.00,,,0.00,Wunderground v.1.15,2013-09-25 22:39:00,
2013-09-25 17:45:00,82.8,54.6,29.75,SSE,164,13.0,19.0,38,0.00,,,0.00,Wunderground v.1.15,2013-09-25 22:45:00,
2013-09-25 17:50:00,82.5,54.3,29.75,SSE,157,13.0,13.0,38,0.00,,,0.00,Wunderground v.1.15,2013-09-25 22:50:00,
2013-09-25 17:55:00,82.4,55.7,29.75,SSE,151,12.0,16.0,40,0.00,,,0.00,Wunderground v.1.15,2013-09-25 22:55:00,
2013-09-25 18:01:00,82.1,55.4,29.75,SSE,161,11.0,11.0,40,0.00,,,0.00,Wunderground v.1.15,2013-09-25 23:01:00,
2013-09-25 18:06:00,82.0,56.6,29.75,SSE,149,11.0,16.0,42,0.00,,,0.00,Wunderground v.1.15,2013-09-25 23:06:00,
2013-09-25 18:11:00,81.6,55.6,29.75,SSE,154,11.0,12.0,41,0.00,,,0.00,Wunderground v.1.15,2013-09-25 23:11:00,
2013-09-25 18:17:00,81.3,56.0,29.75,SSE,158,11.0,17.0,42,0.00,,,0.00,Wunderground v.1.15,2013-09-25 23:17:00,
2013-09-25 18:22:00,81.1,56.5,29.75,SSE,156,12.0,19.0,43,0.00,,,0.00,Wunderground v.1.15,2013-09-25 23:22:00,
2013-09-25 18:27:00,80.4,57.1,29.74,SSE,148,12.0,19.0,45,0.00,,,0.00,Wunderground v.1.15,2013-09-25 23:27:00,
2013-09-25 18:32:00,78.8,58.0,29.74,SE,146,11.0,14.0,49,0.00,,,0.00,Wunderground v.1.15,2013-09-25 23:32:00,
2013-09-25 18:37:00,77.5,58.5,29.74,SE,138,11.0,14.0,52,0.00,,,0.00,Wunderground v.1.15,2013-09-25 23:37:00,
2013-09-25 18:42:00,76.9,57.9,29.74,SE,137,10.0,13.0,52,0.00,,,0.00,Wunderground v.1.15,2013-09-25 23:42:00,
2013-09-25 18:47:00,77.1,57.6,29.74,SE,143,10.0,14.0,51,0.00,,,0.00,Wunderground v.1.15,2013-09-25 23:47:00,
2013-09-25 18:53:00,77.4,57.3,29.74,SE,134,9.0,11.0,50,0.00,,,0.00,Wunderground v.1.15,2013-09-25 23:53:00,
2013-09-25 18:58:00,77.5,56.8,29.74,SE,136,9.0,12.0,49,0.00,,,0.00,Wunderground v.1.15,2013-09-25 23:58:00,
2013-09-25 19:03:00,77.5,56.8,29.74,SE,136,9.0,11.0,49,0.00,,,0.00,Wunderground v.1.15,2013-09-26 00:03:00,
2013-09-25 19:09:00,77.3,57.2,29.74,SE,134,9.0,13.0,50,0.00,,,0.00,Wunderground v.1.15,2013-09-26 00:09:00,
2013-09-25 19:15:00,76.9,57.4,29.74,ESE,123,9.0,13.0,51,0.00,,,0.00,Wunderground v.1.15,2013-09-26 00:15:00,
2013-09-25 19:20:00,76.5,57.6,29.74,ESE,112,9.0,10.0,52,0.00,,,0.00,Wunderground v.1.15,2013-09-26 00:20:00,
2013-09-25 19:25:00,76.0,58.2,29.74,ESE,113,8.0,12.0,54,0.00,,,0.00,Wunderground v.1.15,2013-09-26 00:25:00,
2013-09-25 19:31:00,75.5,57.7,29.74,ESE,116,9.0,11.0,54,0.00,,,0.00,Wunderground v.1.15,2013-09-26 00:31:00,
2013-09-25 19:36:00,75.2,57.9,29.74,ESE,115,9.0,12.0,55,0.00,,,0.00,Wunderground v.1.15,2013-09-26 00:36:00,
2013-09-25 19:41:00,74.9,58.1,29.74,SE,128,9.0,12.0,56,0.00,,,0.00,Wunderground v.1.15,2013-09-26 00:41:00,
2013-09-25 19:46:00,74.7,58.0,29.74,ESE,120,9.0,12.0,56,0.00,,,0.00,Wunderground v.1.15,2013-09-26 00:46:00,
2013-09-25 19:51:00,74.3,58.1,29.74,SE,133,9.0,11.0,57,0.00,,,0.00,Wunderground v.1.15,2013-09-26 00:51:00,
2013-09-25 19:57:00,73.9,58.2,29.74,SE,132,8.0,12.0,58,0.00,,,0.00,Wunderground v.1.15,2013-09-26 00:57:00,
2013-09-25 20:02:00,73.6,57.9,29.74,ESE,123,8.0,10.0,58,0.00,,,0.00,Wunderground v.1.15,2013-09-26 01:02:00,
2013-09-25 20:08:00,73.3,57.6,29.74,SE,136,8.0,12.0,58,0.00,,,0.00,Wunderground v.1.15,2013-09-26 01:08:00,
2013-09-25 20:13:00,73.1,57.9,29.75,SE,140,8.0,10.0,59,0.00,,,0.00,Wunderground v.1.15,2013-09-26 01:13:00,
2013-09-25 20:18:00,72.8,57.6,29.75,SE,130,8.0,11.0,59,0.00,,,0.00,Wunderground v.1.15,2013-09-26 01:18:00,
2013-09-25 20:24:00,72.6,57.9,29.75,ESE,123,7.0,10.0,60,0.00,,,0.00,Wunderground v.1.15,2013-09-26 01:24:00,
2013-09-25 20:29:00,72.2,57.5,29.75,SE,142,7.0,11.0,60,0.00,,,0.00,Wunderground v.1.15,2013-09-26 01:29:00,
2013-09-25 20:35:00,72.0,57.4,29.74,SE,138,8.0,13.0,60,0.00,,,0.00,Wunderground v.1.15,2013-09-26 01:35:00,
2013-09-25 20:40:00,71.8,57.6,29.74,SSE,150,9.0,11.0,61,0.00,,,0.00,Wunderground v.1.15,2013-09-26 01:40:00,
2013-09-25 20:45:00,71.6,57.4,29.74,SE,139,10.0,13.0,61,0.00,,,0.00,Wunderground v.1.15,2013-09-26 01:45:00,
2013-09-25 20:50:00,71.4,57.2,29.73,SE,140,11.0,17.0,61,0.00,,,0.00,Wunderground v.1.15,2013-09-26 01:50:00,
2013-09-25 20:55:00,71.2,57.1,29.73,SE,128,13.0,17.0,61,0.00,,,0.00,Wunderground v.1.15,2013-09-26 01:55:00,
2013-09-25 21:00:00,71.2,57.1,29.73,SE,138,13.0,18.0,61,0.00,,,0.00,Wunderground v.1.15,2013-09-26 02:00:00,
2013-09-25 21:05:00,71.2,57.1,29.73,SE,137,14.0,18.0,61,0.00,,,0.00,Wunderground v.1.15,2013-09-26 02:05:00,
2013-09-25 21:10:00,71.2,57.1,29.73,SE,136,14.0,20.0,61,0.00,,,0.00,Wunderground v.1.15,2013-09-26 02:10:00,
2013-09-25 21:16:00,71.2,57.1,29.73,SSE,148,14.0,20.0,61,0.00,,,0.00,Wunderground v.1.15,2013-09-26 02:16:00,
2013-09-25 21:22:00,71.1,57.4,29.73,SE,138,15.0,19.0,62,0.00,,,0.00,Wunderground v.1.15,2013-09-26 02:22:00,
2013-09-25 21:27:00,71.0,57.3,29.73,SE,126,15.0,19.0,62,0.00,,,0.00,Wunderground v.1.15,2013-09-26 02:27:00,
2013-09-25 21:32:00,70.9,57.7,29.74,SSE,162,14.0,16.0,63,0.00,,,0.00,Wunderground v.1.15,2013-09-26 02:32:00,
2013-09-25 21:37:00,70.7,57.5,29.74,SE,129,12.0,16.0,63,0.00,,,0.00,Wunderground v.1.15,2013-09-26 02:37:00,
2013-09-25 21:42:00,70.6,57.4,29.74,SE,144,11.0,16.0,63,0.00,,,0.00,Wunderground v.1.15,2013-09-26 02:42:00,
2013-09-25 21:47:00,70.5,57.7,29.75,SE,135,11.0,16.0,64,0.00,,,0.00,Wunderground v.1.15,2013-09-26 02:47:00,
2013-09-25 21:53:00,70.4,57.6,29.75,SE,134,11.0,14.0,64,0.00,,,0.00,Wunderground v.1.15,2013-09-26 02:53:00,
2013-09-25 21:59:00,70.4,58.1,29.75,SE,132,11.0,15.0,65,0.00,,,0.00,Wunderground v.1.15,2013-09-26 02:59:00,
2013-09-25 22:04:00,70.3,58.0,29.75,SE,135,12.0,17.0,65,0.00,,,0.00,Wunderground v.1.15,2013-09-26 03:04:00,
2013-09-25 22:09:00,70.2,58.3,29.74,SE,132,12.0,17.0,66,0.00,,,0.00,Wunderground v.1.15,2013-09-26 03:09:00,
2013-09-25 22:14:00,70.1,58.2,29.75,SE,127,11.0,14.0,66,0.00,,,0.00,Wunderground v.1.15,2013-09-26 03:14:00,
2013-09-25 22:19:00,70.0,58.1,29.75,ESE,113,10.0,15.0,66,0.00,,,0.00,Wunderground v.1.15,2013-09-26 03:19:00,
2013-09-25 22:24:00,69.9,58.4,29.75,ESE,106,9.0,12.0,67,0.00,,,0.00,Wunderground v.1.15,2013-09-26 03:24:00,
2013-09-25 22:29:00,69.5,58.5,29.75,ESE,121,9.0,14.0,68,0.00,,,0.00,Wunderground v.1.15,2013-09-26 03:29:00,
2013-09-25 22:34:00,69.3,58.7,29.75,ESE,119,10.0,13.0,69,0.00,,,0.00,Wunderground v.1.15,2013-09-26 03:34:00,
2013-09-25 22:40:00,69.0,58.8,29.74,SE,124,12.0,15.0,70,0.00,,,0.00,Wunderground v.1.15,2013-09-26 03:40:00,
2013-09-25 22:45:00,68.7,58.9,29.75,SE,138,12.0,16.0,71,0.00,,,0.00,Wunderground v.1.15,2013-09-26 03:45:00,
2013-09-25 22:50:00,68.5,59.1,29.74,SE,134,12.0,16.0,72,0.00,,,0.00,Wunderground v.1.15,2013-09-26 03:50:00,
2013-09-25 22:55:00,68.5,59.1,29.74,SE,132,13.0,17.0,72,0.00,,,0.00,Wunderground v.1.15,2013-09-26 03:55:00,
2013-09-25 23:00:00,68.4,59.0,29.75,SE,140,12.0,12.0,72,0.00,,,0.00,Wunderground v.1.15,2013-09-26 04:00:00,
2013-09-25 23:01:00,68.4,59.0,29.75,ESE,122,12.0,14.0,72,0.00,,,0.00,Wunderground v.1.15,2013-09-26 04:01:00,
2013-09-25 23:04:00,68.3,58.9,29.75,ESE,113,11.0,14.0,72,0.00,,,0.00,Wunderground v.1.15,2013-09-26 04:04:00,
2013-09-25 23:05:00,68.3,58.9,29.75,SE,128,11.0,14.0,72,0.00,,,0.00,Wunderground v.1.15,2013-09-26 04:05:00,
2013-09-25 23:06:00,68.3,58.9,29.75,SE,131,11.0,14.0,72,0.00,,,0.00,Wunderground v.1.15,2013-09-26 04:06:00,
2013-09-25 23:10:00,68.2,58.8,29.75,ESE,118,10.0,12.0,72,0.00,,,0.00,Wunderground v.1.15,2013-09-26 04:10:00,
2013-09-25 23:16:00,68.1,59.1,29.75,SSE,148,10.0,13.0,73,0.00,,,0.00,Wunderground v.1.15,2013-09-26 04:16:00,
2013-09-25 23:21:00,67.9,58.9,29.75,SE,131,11.0,13.0,73,0.00,,,0.00,Wunderground v.1.15,2013-09-26 04:21:00,
2013-09-25 23:26:00,67.8,58.8,29.75,SE,136,11.0,16.0,73,0.00,,,0.00,Wunderground v.1.15,2013-09-26 04:26:00,
2013-09-25 23:31:00,67.7,59.1,29.74,SE,137,12.0,17.0,74,0.00,,,0.00,Wunderground v.1.15,2013-09-26 04:31:00,
2013-09-25 23:36:00,67.7,58.7,29.74,SE,134,13.0,20.0,73,0.00,,,0.00,Wunderground v.1.15,2013-09-26 04:36:00,
2013-09-25 23:42:00,67.6,58.6,29.74,SE,135,13.0,18.0,73,0.00,,,0.00,Wunderground v.1.15,2013-09-26 04:42:00,
2013-09-25 23:48:00,67.7,58.7,29.74,SE,137,14.0,19.0,73,0.00,,,0.00,Wunderground v.1.15,2013-09-26 04:48:00,
2013-09-25 23:53:00,67.6,58.6,29.74,SE,135,15.0,21.0,73,0.00,,,0.00,Wunderground v.1.15,2013-09-26 04:53:00,
2013-09-25 23:58:00,67.6,58.6,29.74,SE,142,16.0,21.0,73,0.00,,,0.00,Wunderground v.1.15,2013-09-26 04:58:00,